Regional Weather Roundup
Issued by NWS

Home | Current Version | Previous Version | Graphics & Text | Print | Product List | Glossary On
Versions: 1 2 3 4 5 6 7 8 9 10 11 12 13 14 15 16 17 18 19 20 21 22 23 24 25 26 27 28 29 30 31 32 33 34 35 36 37 38 39 40 41 42 43 44 45 46 47 48 49 50
000
ASUS45 KTFX 261310
RWRMT
MONTANA REGIONAL WEATHER ROUNDUP
NATIONAL WEATHER SERVICE GREAT FALLS MT
600 AM MST SUN FEB 26 2017

NOTE: "FAIR" INDICATES FEW OR NO CLOUDS BELOW 12000 FEET WITH NO
SIGNIFICANT WEATHER AND/OR OBSTRUCTIONS TO VISIBILITY.

MTZ001>007-043-261400-
WEST OF THE DIVIDE

CITY           SKY/WX    TMP DP  RH WIND       PRES   REMARKS
KALISPELL      LGT SNOW  25  23  92 SE8       29.72S FOG     WCI  16
MISSOULA       CLOUDY    25  23  92 CALM      29.74F
BUTTE          CLOUDY    21   8  57 CALM      29.69S
MULLAN PASS    LGT SNOW  16  14  92 VRB7      29.56F VSB 1   WCI   6
ANACONDA         N/A     21   9  58 S12G18    29.69F WCI   9
DEER LODGE       N/A     25  12  58 S5        29.72S
EUREKA           N/A     25  21  86 SE6       29.73S WCI  18
HAMILTON         N/A     28  16  59 S12       29.72F WCI  18
LIBBY            N/A     25  23  93 CALM      29.71S
PLAINS           N/A     26  20  78 CALM      29.76F
RONAN            N/A     24  21  88 CALM      29.78S
$$

MTZ008-052>055-261400-
SOUTHWEST MONTANA

CITY           SKY/WX    TMP DP  RH WIND       PRES   REMARKS
BOZEMAN        CLOUDY    25  13  60 CALM      29.75F
DILLON         CLOUDY    19   6  57 SW12      29.71F WCI   7
W YELLOWSTONE  CLOUDY    10   7  85 SW9       29.76S FOG     WCI  -2
ENNIS          CLOUDY    18   7  62 S18       29.78F WCI   2
THREE FORKS      N/A     26  26 100 SW12      29.77F WCI  16
TWIN BRIDGES     N/A     24   8  50 SE7       29.76F WCI  16
$$

MTZ009-010-012-014-046-048-049-054-261400-
EAST SLOPES AND CENTRAL MONTANA

CITY           SKY/WX    TMP DP  RH WIND       PRES   REMARKS
CUT BANK       LGT SNOW  20  17  88 N16       29.70R FOG     WCI   6
GREAT FALLS    LGT SNOW  24  20  84 SW9       29.71S FOG     WCI  14
MALMSTROM AFB  LGT SNOW  24  22  94 W8        29.73S WCI  15
HELENA         CLOUDY    24  21  88 E8        29.73F WCI  15
AUGUSTA        CLOUDY    23  12  62 CALM      29.66S
BOWMANS CRNR   FLURRIES  23  13  67 S5        29.66F
CHOTEAU          N/A     23  21  93 NE7       29.72R WCI  15
CONRAD           N/A     23  21  92 NW1       29.75S
POWER          LGT SNOW  21  20  93 N8        29.70S WCI  12
RAYNESFORD     LGT SNOW  23  20  89 W13       29.70S WCI  11
ULM            FLURRIES  25  20  81 MISG      29.72S
$$

MTZ011-013-016-021-045-047-050-051-261400-
NORTH CENTRAL MONTANA

CITY           SKY/WX    TMP DP  RH WIND       PRES   REMARKS
HAVRE          CLOUDY    24  22  91 W9        29.73R FOG     WCI  14
LEWISTOWN      FLURRIES  22  16  78 NW17      29.67R WCI   8
N BAR RANCH    LGT SNOW  21  16  79 W8G14     29.67S WCI  12
CHINOOK          N/A     25  19  80 W9        29.73R WCI  15
DENTON         FLURRIES  24  20  84 NW8G28    29.67R WCI  15
FORT BENTON      N/A     27  21  80 MISG      29.75S
GEYSER         LGT SNOW  22  20  91 W13       29.68R WCI  10
GRASS RANGE    FLURRIES  24  20  87 W12       29.65R WCI  12
JUDITH GAP     MOCLDY    21   9  58 W12       29.66R WCI  10
ROY            FLURRIES  24  21  89 MISG      29.66R
STANFORD       MOCLDY    21  17  84 NW20      29.66S WCI   5
WINIFRED       FLURRIES  23  22  93 W14G22    29.67S WCI  11
$$

MTZ017>020-022>027-061-062-261400-
NORTHEAST MONTANA

CITY           SKY/WX    TMP DP  RH WIND       PRES   REMARKS
GLASGOW        LGT SNOW  17  14  88 E6        29.66S FOG     WCI   9
JORDAN           N/A     26  22  84 W12G17    29.66S WCI  16
SIDNEY         FLURRIES  17  13  84 SE3       29.70S
WOLF POINT     CLOUDY    13   9  84 CALM      29.70R
PLENTYWOOD       N/A     12   9  85 CALM      29.68S
POPLAR           N/A     16  10  79 E5        29.70R
SCOBEY           N/A     12   4  70 CALM      29.67R VSB 1
$$

MTZ028>42-056>058-261400-
SOUTHCENTRAL AND SOUTHEAST MONTANA

CITY           SKY/WX    TMP DP  RH WIND       PRES   REMARKS
BAKER          PTCLDY    22  13  68 W13       29.66R WCI  10
BILLINGS       CLOUDY    23  12  62 SW9       29.72R WCI  13
LIVINGSTON     CLOUDY    22   7  52 W24G37    29.70F WCI   5
MILES CITY     CLOUDY    28  16  60 W13       29.70R WCI  17
BIG TIMBER     CLOUDY    21   9  58 W16G22    29.73S WCI   7
EKALAKA          N/A     20   9  62 SW8       29.67R WCI  10
FORSYTH          N/A     28  16  59 SW7       29.71S WCI  21
HARLOWTON        N/A     22  16  77 W22       29.67R WCI   6
LAUREL           N/A     20   8  59 S10       29.72S WCI   9
ROUNDUP          N/A     26  14  60 W14       29.64S WCI  14
$$

REGIONAL REPORTS...DAKOTAS

CITY           SKY/WX    TMP DP  RH WIND       PRES   REMARKS
WILLISTON      LGT SNOW  11   9  92 CALM      29.71S FOG
MINOT          MOCLDY     1  -4  79 SW7       29.72S WCI -12
DICKINSON      CLOUDY    14  11  87 E6        29.65S WCI   5
BEACH            N/A    N/A N/A N/A MISG        N/A
CROSBY           N/A     10  10 100 S7        29.72S WCI   0
TIOGA            N/A      1   1 100 CALM      29.70F
WATFORD CITY   FLURRIES  14  12  92 E8        29.70S WCI   3
BISMARCK       CLOUDY    13   9  84 CALM      29.78S
GRAND FORKS    PTCLDY     4  -2  76 W8        29.79R WCI  -9
FARGO          PTCLDY    11   7  84 N12       29.78R WCI  -3
BUFFALO SD       N/A     19  12  74 W12       29.61S WCI   7
RAPID CITY     CLEAR     15   8  73 CALM      29.74S
$$

REGIONAL REPORTS...WYOMING/IDAHO/WASHINGTON

CITY           SKY/WX    TMP DP  RH WIND       PRES   REMARKS
GILLETTE       CLEAR     17   5  59 SW14      29.71R WCI   3
SHERIDAN       MOCLDY    15   5  64 SE12      29.72S WCI   2
BUFFALO WY     CLEAR     15  -1  49 W8        29.69R WCI   4
CODY           CLOUDY    21   2  43 W14G28    29.71S WCI   8
YELLOWSTONE LA   N/A      6   3  87 CALM      29.72S
IDAHO FALLS    CLOUDY     8   6  92 SW3       29.88F
SALMON         CLOUDY    27   9  46 S7        29.77F WCI  19
BOISE          CLOUDY    30  17  58 SE14      29.86F WCI  19
SPOKANE        LGT SNOW  28  26  92 SW5       29.74F FOG
$$

REGIONAL REPORTS...ALBERTA

CITY           SKY/WX    TMP DP  RH WIND       PRES   REMARKS
EDMONTON       CLOUDY    12   3  67 NW17G30   29.84R WCI  -5
CALGARY        LGT SNOW  14  10  85 N9        29.78R FOG     WCI   2
LETHBRIDGE     FLURRIES  19  16  86 N12       29.77R WCI   7
MEDICINE HAT   FLURRIES  19  16  86 NW16      29.77R WCI   5
WATERTON GATE    N/A     18  16  93 NE6         N/A  WCI   9
CARDSTON         N/A     18  14  86 N12G17      N/A  WCI   5
MILK RIVER       N/A     18  18 100 N18         N/A  WCI   2
$$

REGIONAL REPORTS...SASKATCHEWAN

CITY           SKY/WX    TMP DP  RH WIND       PRES   REMARKS
SWIFT CURRENT  LGT SNOW  18  18 100 NW12      29.64R WCI   5
REGINA         CLOUDY    12   9  85 S5        29.67R
SASKATOON      CLOUDY    10   9  92 NW7       29.71R WCI   0
CYPRESS HILLS    N/A     12   9  85 NW10G21     N/A  WCI  -1
VAL MARIE        N/A     16  12  86 NE2         N/A
ROCKGLEN         N/A      9   7  92 SW6         N/A  WCI  -1
ASSINIBOIA       N/A     16   9  73 N20G26      N/A  WCI  -1
$$



USA.gov is the U.S. government's official web portal to all federal, state and local government web resources and services.